Wind_Speed
34 35 36 36 36 37 39 39 39 37 37 35 34 34 35 36 36 37 37 37 37 37 38 38 38 38 39 40 41 42 42 41 41 40 40 40 39 39 39 39 39 39 39 39
34 34 36 36 36 37 38 39 39 38 37 35 36 36 37 37 37 37 36 36 36 37 37 38 38 39 39 40 40 41 40 39 39 39 39 39 38 38 38 38 38 38 39 38
35 35 37 37 34 35 37 37 38 38 36 36 36 36 37 37 36 36 36 36 36 36 37 38 38 38 38 39 39 39 38 38 38 38 38 38 37 37 38 38 38 38 38 38
35 36 38 35 34 34 35 36 37 37 36 36 36 36 36 36 37 36 36 37 37 37 37 38 39 39 38 38 38 38 37 37 38 38 38 37 37 37 37 36 36 36 36 36
34 34 35 33 32 33 34 34 34 35 36 36 37 37 36 36 36 36 36 37 37 38 38 39 39 39 39 38 37 36 36 36 36 36 36 36 36 36 36 35 35 35 35 35
34 34 34 32 31 31 33 33 33 35 35 36 36 36 35 36 36 36 37 37 37 38 38 39 39 39 38 37 36 35 34 34 34 34 35 34 34 34 34 34 34 34 34 34
34 35 34 33 32 32 33 33 33 34 35 36 36 35 34 34 35 35 36 37 37 37 38 38 38 37 36 35 34 34 33 33 33 34 34 33 33 33 33 33 33 33 33 33
34 34 33 32 33 33 33 34 34 33 34 35 35 34 34 34 35 36 36 37 38 37 37 37 36 35 33 33 33 33 33 33 33 33 33 32 32 32 32 33 33 33 33 32
33 33 32 33 33 34 34 34 33 33 34 34 34 34 34 35 36 36 37 37 37 37 38 36 35 34 33 32 32 32 32 33 33 32 32 32 31 32 32 31 31 32 32 33
33 33 33 34 34 33 33 33 33 33 34 34 34 35 35 35 36 36 36 36 36 36 36 35 35 33 32 32 31 32 32 32 32 31 31 31 32 32 31 32 32 32 32 32
33 33 33 32 32 32 33 33 32 33 33 34 34 34 34 34 34 34 34 34 34 34 34 33 33 32 31 31 31 31 31 31 31 32 32 31 31 31 32 32 32 32 31 31
33 32 33 31 31 32 32 31 31 31 32 32 32 32 33 32 32 32 32 32 32 32 32 31 31 30 30 29 29 29 30 30 30 31 31 31 31 31 32 32 32 32 32 31
32 31 31 31 30 30 30 30 30 30 31 30 31 31 31 31 30 30 30 30 30 31 30 30 29 29 29 29 29 29 29 30 30 30 30 30 30 30 31 31 31 31 31 31
30 30 30 29 29 28 28 29 29 28 29 29 29 29 29 28 28 28 28 29 29 29 29 28 28 28 28 27 28 28 28 29 29 28 28 28 29 29 30 30 30 30 30 30
29 29 28 29 29 29 28 28 27 26 26 26 26 26 26 26 26 26 27 28 27 27 26 26 26 26 25 25 26 26 27 27 27 27 28 28 28 29 29 30 29 29 28 29
27 27 28 28 28 28 27 27 26 26 26 26 26 25 25 24 24 25 26 26 26 26 25 25 24 24 24 24 25 25 25 25 26 26 27 27 27 28 28 28 27 27 27 27
25 25 26 27 27 27 26 25 25 25 25 25 24 24 23 24 24 24 24 24 24 24 23 23 23 22 22 22 23 23 24 24 24 25 25 25 25 25 25 25 25 25 25 25
23 23 24 24 24 24 25 25 24 24 24 24 24 24 23 23 23 23 23 24 24 24 23 23 23 23 23 23 23 23 23 23 23 23 23 23 23 23 22 22 22 22 21 21
20 21 21 21 22 22 22 23 23 23 23 22 22 22 22 22 22 23 23 23 23 23 23 23 23 23 23 23 23 23 23 23 23 22 22 21 21 20 19 19 19 19 19 19
19 19 19 19 20 20 20 20 20 21 21 21 21 21 21 22 23 23 23 23 23 22 23 23 23 23 23 23 23 23 22 22 22 21 21 20 19 18 18 17 16 16 16 17
17 17 17 17 17 17 17 18 18 18 19 19 19 20 21 22 22 22 22 22 21 22 22 22 22 22 22 22 22 22 22 21 21 20 19 19 18 17 16 15 15 15 15 14
16 15 16 16 15 15 16 16 17 17 17 17 18 19 20 20 20 21 21 20 20 20 20 20 21 21 21 21 21 21 20 19 19 18 17 16 16 15 15 14 14 14 14 13
16 16 16 16 16 16 16 16 16 16 16 17 17 18 18 18 18 18 18 18 18 19 19 19 20 20 20 20 19 19 18 17 17 16 15 15 14 14 13 13 13 13 12 12
16 16 16 16 16 16 15 15 16 16 16 17 17 18 18 18 18 17 17 17 17 18 18 18 18 18 18 18 18 17 17 17 17 16 15 15 14 13 13 13 13 12 12 12
15 15 15 15 16 16 15 15 16 16 16 17 17 18 18 18 18 17 17 17 17 17 17 17 17 17 16 16 16 16 16 16 15 15 15 14 14 13 13 13 12 12 12 12
14 14 14 14 14 15 15 15 15 16 17 17 18 18 18 18 17 17 16 16 16 16 16 16 16 15 15 15 15 15 15 14 13 13 13 13 13 12 12 12 12 13 13 13
14 14 14 14 14 13 13 14 14 15 16 16 17 17 17 17 16 16 16 16 15 15 15 14 14 13 13 13 12 12 12 11 11 12 12 12 12 12 12 13 13 13 13 14
Wind_Direction
261 261 260 260 261 260 261 264 266 268 270 272 273 274 274 274 275 277 278 279 279 278 278 278 277 276 275 275 274 273 273 273 273 273 273 272 272 272 273 273 272 272 272 272
262 262 262 262 262 262 262 263 266 269 271 272 273 274 274 274 275 276 277 278 279 278 278 279 278 278 277 276 275 273 272 272 271 271 272 272 272 272 272 272 272 272 272 272
261 262 262 263 264 264 264 264 266 269 271 271 273 273 274 274 275 275 277 278 279 279 279 279 280 280 279 278 276 273 271 270 269 271 271 271 272 273 273 272 272 272 272 271
262 261 262 265 265 265 266 267 267 268 269 271 272 273 274 275 275 276 277 278 278 280 280 281 281 280 280 279 277 274 272 271 271 271 271 271 272 272 273 273 273 272 270 271
262 263 265 264 266 267 268 268 268 269 270 271 272 272 272 274 275 276 278 279 279 280 282 282 282 280 280 279 277 274 272 271 271 271 271 270 270 271 272 272 271 271 270 270
261 265 267 268 267 269 271 270 270 270 271 272 273 274 273 273 275 276 277 279 279 281 282 282 282 281 279 277 275 273 271 270 271 271 271 271 271 271 271 270 269 269 270 270
262 265 268 269 268 270 272 273 272 272 272 273 274 275 274 273 275 277 276 277 278 280 283 283 282 281 278 275 273 271 270 270 270 271 271 270 270 270 269 269 269 269 269 269
264 266 270 271 270 271 273 273 274 274 273 273 274 274 274 275 276 278 278 278 278 280 282 283 281 279 276 273 271 270 270 269 269 270 270 270 270 270 270 269 269 269 269 269
265 268 270 271 272 273 273 274 274 273 273 273 273 273 274 276 278 279 279 279 279 280 281 281 280 277 274 272 270 270 270 269 269 270 270 270 269 269 269 269 269 269 270 270
265 267 270 271 272 272 272 273 273 274 274 274 274 275 277 278 279 279 280 280 280 280 281 281 279 276 273 273 271 270 270 269 269 270 270 270 270 268 268 268 269 270 271 271
265 267 269 271 271 272 272 273 273 274 274 275 275 276 277 278 279 279 280 280 280 281 282 281 279 276 275 275 273 272 272 271 270 271 271 270 269 268 269 270 269 270 271 271
266 267 267 269 271 272 272 272 272 273 274 274 277 277 277 278 278 279 279 280 281 282 282 281 279 277 276 275 274 273 272 272 272 273 272 270 269 269 270 272 271 270 272 271
268 267 267 269 272 272 271 270 271 273 274 275 276 278 279 279 279 280 279 280 281 281 281 281 279 277 276 276 275 273 273 273 272 272 272 271 271 271 271 271 270 270 272 273
268 268 268 269 270 271 272 272 274 274 275 276 277 277 278 279 279 280 280 281 282 282 281 280 279 278 278 278 277 275 274 274 273 272 272 272 272 272 272 271 270 270 271 272
269 268 268 269 270 271 273 274 274 275 276 277 277 278 277 278 280 281 282 283 283 283 282 280 280 279 278 278 277 276 275 275 274 275 274 274 274 274 273 272 271 270 270 270
270 270 269 269 271 272 272 272 273 275 276 277 278 278 278 279 281 283 284 284 284 283 282 280 280 279 278 278 278 277 276 276 276 276 276 276 276 275 275 274 271 270 270 269
274 274 273 272 272 272 271 272 273 273 274 276 276 276 276 278 281 283 284 284 283 283 282 281 280 280 281 282 282 280 278 277 278 278 278 278 278 277 276 275 272 271 270 269
276 276 275 274 274 272 272 272 272 273 273 274 275 274 275 277 280 283 285 283 282 282 281 279 279 280 280 281 281 281 279 278 278 278 278 279 280 280 278 277 274 272 271 269
277 277 275 275 275 274 275 274 273 273 273 274 275 275 277 279 281 284 285 284 283 282 280 279 278 278 279 280 280 280 280 279 278 277 278 279 279 280 281 279 276 275 272 270
280 280 279 278 277 277 277 277 276 275 275 275 277 278 279 281 284 285 285 284 284 282 281 280 278 278 279 279 279 280 280 280 279 278 278 277 276 278 280 279 276 275 273 270
284 283 281 280 279 280 280 281 280 278 277 278 280 282 282 284 286 286 286 285 284 283 281 280 279 279 280 278 278 280 279 279 277 277 277 275 274 275 276 275 275 273 271 268
285 284 284 284 282 283 283 284 283 281 280 282 284 285 286 288 288 287 286 286 285 284 282 281 280 279 279 278 279 279 278 278 276 275 274 273 273 272 272 271 271 270 270 268
285 285 286 284 283 284 285 285 284 283 282 283 286 287 289 290 291 290 288 287 287 287 286 284 283 282 280 279 278 277 277 276 275 272 270 271 270 268 268 269 269 269 269 268
283 284 284 283 283 283 285 285 284 284 285 286 287 289 290 291 291 291 290 289 290 290 288 287 286 285 283 280 278 277 276 274 272 268 267 267 267 266 267 268 269 270 271 270
283 283 283 283 283 284 285 285 285 287 287 289 290 290 291 291 290 289 288 289 291 292 291 288 287 285 284 282 279 277 275 274 271 265 263 263 263 264 265 266 267 269 269 270
284 284 283 283 284 285 286 287 287 287 288 289 290 292 292 292 291 289 288 289 290 291 291 289 288 286 283 282 280 278 275 272 268 262 260 259 259 260 262 265 267 269 270 271
287 287 286 285 285 287 289 290 290 291 292 293 293 294 294 293 291 290 289 289 290 290 292 292 290 289 287 286 283 277 273 270 266 261 259 258 258 259 260 264 268 270 271 271
Height
5595 5596 5597 5598 5600 5601 5601 5601 5601 5603 5604 5606 5605 5604 5604 5603 5602 5602 5601 5600 5598 5597 5596 5595 5593 5592 5590 5589 5588 5587 5586 5586 5585 5585 5585 5585 5584 5583 5582 5581 5581 5580 5580 5580
5586 5588 5587 5589 5591 5592 5592 5592 5592 5593 5595 5596 5595 5594 5594 5593 5593 5592 5591 5590 5589 5587 5586 5585 5583 5582 5580 5578 5577 5576 5575 5575 5574 5574 5574 5574 5573 5573 5572 5571 5570 5570 5570 5569
5577 5579 5578 5580 5584 5584 5584 5584 5584 5584 5587 5585 5585 5585 5584 5584 5583 5582 5581 5580 5579 5577 5576 5575 5573 5571 5569 5567 5566 5564 5564 5564 5564 5564 5564 5564 5563 5562 5561 5561 5560 5559 5559 5559
5568 5569 5569 5576 5575 5575 5575 5576 5576 5576 5576 5576 5575 5575 5574 5573 5573 5572 5571 5570 5569 5567 5566 5564 5562 5560 5558 5557 5555 5554 5554 5553 5553 5553 5553 5553 5553 5552 5551 5550 5550 5550 5549 5550
5560 5559 5561 5566 5567 5566 5566 5567 5567 5567 5567 5566 5565 5565 5566 5564 5563 5562 5561 5560 5559 5557 5555 5554 5551 5549 5547 5546 5545 5544 5543 5543 5543 5543 5543 5543 5542 5542 5541 5541 5541 5540 5540 5540
5552 5551 5552 5559 5558 5557 5557 5557 5559 5558 5557 5557 5556 5556 5558 5555 5554 5553 5552 5550 5549 5547 5545 5543 5540 5538 5537 5535 5534 5534 5533 5533 5533 5533 5533 5533 5532 5532 5532 5531 5532 5532 5532 5531
5544 5543 5545 5549 5549 5548 5549 5550 5549 5548 5548 5547 5546 5547 5546 5545 5544 5543 5542 5540 5538 5537 5534 5532 5530 5528 5526 5525 5524 5524 5524 5524 5524 5524 5524 5523 5523 5523 5522 5522 5522 5523 5523 5522
5536 5537 5541 5540 5540 5540 5540 5539 5538 5538 5537 5537 5537 5536 5536 5535 5534 5533 5531 5530 5528 5526 5524 5522 5520 5518 5517 5516 5515 5515 5515 5515 5515 5514 5514 5514 5514 5514 5514 5513 5513 5513 5514 5514
5530 5532 5531 5531 5531 5530 5530 5529 5529 5528 5528 5527 5527 5526 5526 5525 5524 5523 5521 5520 5518 5516 5514 5512 5510 5508 5507 5506 5506 5506 5506 5505 5505 5505 5505 5505 5505 5505 5505 5505 5505 5505 5505 5505
5520 5522 5522 5522 5521 5521 5520 5520 5519 5519 5518 5518 5517 5517 5516 5515 5514 5513 5511 5510 5508 5506 5504 5502 5501 5499 5498 5497 5497 5497 5496 5496 5496 5496 5496 5496 5496 5496 5496 5497 5496 5496 5496 5496
5511 5513 5513 5513 5513 5512 5512 5511 5510 5509 5509 5508 5507 5507 5506 5505 5504 5503 5501 5500 5498 5496 5495 5493 5491 5490 5489 5488 5488 5488 5488 5487 5487 5487 5487 5488 5488 5488 5488 5488 5487 5487 5487 5487
5503 5504 5503 5504 5503 5503 5502 5501 5501 5500 5499 5499 5498 5497 5496 5495 5494 5493 5492 5490 5489 5487 5485 5484 5483 5482 5480 5479 5479 5479 5479 5479 5479 5479 5479 5479 5479 5479 5479 5479 5479 5478 5478 5478
5493 5494 5493 5493 5494 5493 5492 5492 5491 5491 5490 5490 5489 5488 5487 5486 5485 5484 5482 5481 5480 5478 5476 5475 5474 5473 5472 5471 5471 5470 5470 5471 5470 5470 5470 5470 5470 5470 5470 5470 5470 5470 5469 5469
5485 5484 5485 5485 5485 5484 5484 5483 5483 5482 5481 5481 5480 5479 5478 5477 5476 5475 5474 5472 5471 5469 5468 5467 5466 5465 5464 5463 5463 5462 5462 5462 5462 5462 5462 5462 5462 5461 5461 5461 5461 5461 5461 5460
5476 5476 5476 5476 5476 5476 5476 5475 5475 5474 5473 5473 5472 5471 5470 5469 5468 5467 5466 5464 5463 5461 5460 5459 5458 5457 5457 5456 5455 5455 5455 5454 5454 5454 5454 5453 5453 5452 5452 5452 5452 5452 5452 5452
5468 5468 5468 5468 5468 5468 5468 5467 5467 5466 5466 5465 5464 5463 5462 5461 5461 5459 5458 5457 5455 5454 5453 5452 5451 5450 5450 5449 5448 5448 5447 5447 5447 5446 5446 5445 5444 5444 5443 5443 5443 5443 5444 5444
5461 5461 5461 5460 5460 5460 5460 5459 5459 5458 5458 5457 5456 5456 5455 5454 5453 5452 5451 5450 5449 5447 5446 5445 5444 5444 5443 5442 5442 5441 5441 5440 5440 5439 5438 5438 5437 5436 5435 5435 5435 5435 5435 5435
5454 5454 5453 5453 5452 5452 5452 5452 5451 5451 5450 5450 5449 5448 5448 5447 5446 5445 5444 5443 5442 5441 5440 5439 5438 5437 5436 5436 5435 5434 5434 5433 5433 5432 5431 5431 5430 5429 5428 5428 5428 5428 5428 5428
5448 5447 5447 5446 5446 5445 5445 5444 5444 5443 5443 5442 5442 5441 5441 5440 5439 5438 5437 5436 5435 5434 5433 5432 5431 5430 5430 5429 5428 5428 5427 5427 5426 5425 5425 5424 5424 5423 5422 5422 5422 5422 5422 5422
5442 5442 5441 5440 5439 5439 5438 5438 5437 5437 5436 5436 5435 5435 5434 5433 5432 5431 5430 5429 5428 5427 5426 5425 5424 5423 5423 5422 5422 5421 5420 5420 5419 5419 5418 5418 5418 5418 5417 5417 5416 5416 5416 5416
5437 5436 5435 5435 5434 5433 5433 5432 5432 5431 5431 5430 5429 5428 5427 5426 5425 5424 5423 5422 5421 5420 5419 5418 5417 5416 5416 5415 5415 5414 5414 5413 5413 5413 5412 5412 5412 5412 5412 5412 5412 5411 5411 5411
5432 5431 5431 5430 5429 5428 5428 5427 5426 5426 5425 5424 5423 5422 5421 5420 5419 5417 5416 5415 5414 5413 5412 5411 5410 5409 5409 5408 5408 5408 5407 5407 5407 5407 5407 5407 5407 5407 5407 5407 5407 5407 5407 5407
5427 5426 5426 5425 5424 5424 5423 5422 5421 5421 5420 5419 5418 5417 5415 5414 5413 5412 5410 5409 5408 5407 5406 5405 5404 5403 5402 5402 5401 5401 5401 5401 5401 5401 5402 5402 5402 5403 5403 5403 5403 5403 5403 5403
5422 5421 5421 5420 5419 5419 5418 5417 5417 5416 5415 5414 5413 5412 5410 5409 5408 5406 5405 5404 5402 5401 5400 5399 5398 5397 5396 5396 5396 5396 5396 5396 5396 5396 5397 5397 5398 5398 5399 5399 5399 5399 5399 5399
5417 5416 5415 5415 5414 5413 5413 5412 5412 5411 5410 5409 5408 5406 5405 5404 5403 5401 5400 5399 5397 5396 5395 5394 5392 5392 5391 5390 5390 5390 5390 5390 5391 5391 5392 5393 5393 5394 5394 5395 5395 5395 5395 5396
5412 5411 5410 5410 5409 5408 5408 5407 5407 5406 5405 5404 5403 5401 5400 5398 5397 5396 5395 5394 5393 5391 5390 5389 5388 5387 5386 5385 5385 5385 5385 5385 5386 5386 5387 5388 5389 5389 5390 5391 5391 5391 5391 5391
5407 5406 5406 5405 5404 5404 5403 5402 5402 5401 5400 5399 5398 5396 5395 5393 5392 5391 5390 5389 5388 5387 5385 5384 5383 5383 5382 5381 5381 5380 5381 5381 5382 5382 5383 5384 5385 5385 5386 5386 5387 5387 5387 5387